Tracking 19709 objects as of 18-Jun-2019
HD Live streaming from Space Station
objects crossing your sky now

COSMOS 1365 FUEL CORE

Track COSMOS 1365 FUEL CORE now!
10-day predictions


NORAD ID: 13594
Int'l Code: 1982-043D
Perigee: 887.9 km
Apogee: 961.7 km
Inclination: 65.1 °
Period: 103.4 minutes
Semi major axis: 7295 km
RCS: 0.1563 m2 (medium)
Launch date: May 14, 1982
Source: Commonwealth of Independent States (former USSR) (CIS)
Launch site: TYURATAM MISSILE AND SPACE COMPLEX (TTMTR)

Note: This is SATELLITE DEBRIS
aabbcc
Your satellite tracking list
Your tracking list is empty




NASA's NSSDC Master Catalog

Two Line Element Set (TLE):
1 13594U 82043D   19169.14978776 -.00000099  00000-0 -66557-5 0  9998
2 13594  65.0668 171.6381 0050546 184.1627 175.9025 13.93133000890011
Source of the keplerian elements: AFSPC